sat.trackr.live / text

‹ back to catalog

STARLINK-2164

NORAD 47750 · 2021-017AE

PAYLOAD ACTIVE UNKNOWN

§ Identity

Operator
Country
US
Launch date
2021-03-04
Launch site
AFETR
Launch vehicle
Mass (kg)
RCS (m²)

Purposes: comms

External: N2YO · Heavens-Above · Gunter

§ Orbital elements

Epoch: 2026-05-25T04:49:20.646624Z

Period
94.01 min
Inclination
53.1594°
Eccentricity
0.0001226
Mean motion
15.31692557 rev/d
Perigee alt
469.9 km
Apogee alt
471.6 km
Semi-major
6,848.9 km
B*
2.4105e-5
RAAN
197.6766°
Arg perigee
85.9226°
Mean anomaly
274.1916°
Rev number
28,971

§ Raw data

STARLINK-21641 47750U 21017AE  26145.20093341  .00000383  00000+0  24105-4 0  99932 47750  53.1594 197.6766 0001226  85.9226 274.1916 15.31692557289718

JSON: /api/v1/satellites/47750 · /tle

For live sub-satellite position, see the globe view (requires WebGL).

§ Visibility from observer

Set your observer location to see the next 7 days of passes ≥ 10°. The values pass through the URL so the page stays shareable.

No JS? Fill the form by hand. The geolocation button needs JavaScript.